Time,TemperatureF,DewpointF,PressureIn,WindDirection,WindDirectionDegrees,WindSpeedMPH,WindSpeedGustMPH,Humidity,HourlyPrecipIn,Conditions,Clouds,dailyrainin,SoftwareType,DateUTC
2013-04-06 00:03:00,45.7,6.8,30.02,NE,45,2.0,3.0,20,0.00,CLR,CLR,0.00,WeatherDisplay:10.37,2013-04-06 04:03:00,
2013-04-06 00:18:00,45.5,6.7,29.99,NE,52,2.0,3.0,20,0.00,CLR,CLR,0.00,WeatherDisplay:10.37,2013-04-06 04:18:00,
2013-04-06 00:33:00,45.3,6.5,29.99,ENE,57,2.0,3.0,20,0.00,CLR,CLR,0.00,WeatherDisplay:10.37,2013-04-06 04:33:00,
2013-04-06 00:48:00,45.1,6.4,30.02,NE,52,2.0,3.0,20,0.00,CLR,CLR,0.00,WeatherDisplay:10.37,2013-04-06 04:48:00,
2013-04-06 01:03:00,44.4,5.8,30.02,NE,42,2.0,3.0,20,0.00,CLR,CLR,0.00,WeatherDisplay:10.37,2013-04-06 05:03:00,
2013-04-06 01:18:00,44.1,5.5,30.02,ENE,58,2.0,3.0,20,0.00,CLR,CLR,0.00,WeatherDisplay:10.37,2013-04-06 05:18:00,
2013-04-06 01:33:00,44.1,5.5,30.02,ENE,64,2.0,4.0,20,0.00,CLR,CLR,0.00,WeatherDisplay:10.37,2013-04-06 05:33:00,
2013-04-06 01:48:00,44.1,5.5,30.02,ENE,61,3.0,4.0,20,0.00,CLR,CLR,0.00,WeatherDisplay:10.37,2013-04-06 05:48:00,
2013-04-06 02:03:00,43.9,5.3,30.02,NE,55,3.0,4.0,20,0.00,CLR,CLR,0.00,WeatherDisplay:10.37,2013-04-06 06:03:00,
2013-04-06 02:18:00,43.5,5.0,30.02,ENE,65,2.0,3.0,20,0.00,CLR,CLR,0.00,WeatherDisplay:10.37,2013-04-06 06:18:00,
2013-04-06 02:33:00,43.5,5.0,29.99,ENE,76,2.0,3.0,20,0.00,CLR,CLR,0.00,WeatherDisplay:10.37,2013-04-06 06:33:00,
2013-04-06 02:48:00,43.3,4.9,30.02,ENE,68,1.0,3.0,20,0.00,CLR,CLR,0.00,WeatherDisplay:10.37,2013-04-06 06:48:00,
2013-04-06 03:03:00,42.8,4.4,30.05,East,90,0.0,1.0,20,0.00,CLR,CLR,0.00,WeatherDisplay:10.37,2013-04-06 07:03:00,
2013-04-06 03:04:00,42.6,33.9,30.05,East,90,0.0,0.0,71,0.00,SCT,SCT,0.00,WeatherDisplay:10.37,2013-04-06 07:04:00,
2013-04-06 03:05:00,42.6,33.9,30.05,East,90,0.0,0.0,71,0.00,SCT,SCT,0.00,WeatherDisplay:10.37,2013-04-06 07:05:00,
2013-04-06 03:06:00,42.6,33.9,30.05,East,90,0.0,0.0,71,0.00,SCT,SCT,0.00,WeatherDisplay:10.37,2013-04-06 07:06:00,
2013-04-06 03:07:00,42.6,33.9,30.05,East,90,0.0,0.0,71,0.00,SCT,SCT,0.00,WeatherDisplay:10.37,2013-04-06 07:07:00,
2013-04-06 03:08:00,42.6,33.9,30.05,East,90,0.0,0.0,71,0.00,SCT,SCT,0.00,WeatherDisplay:10.37,2013-04-06 07:08:00,
2013-04-06 03:09:00,42.6,33.9,30.05,East,90,0.0,0.0,71,0.00,SCT,SCT,0.00,WeatherDisplay:10.37,2013-04-06 07:09:00,
2013-04-06 03:10:00,42.6,33.9,30.05,East,90,0.0,0.0,71,0.00,SCT,SCT,0.00,WeatherDisplay:10.37,2013-04-06 07:10:00,
2013-04-06 03:11:00,42.6,33.9,30.05,East,90,0.0,0.0,71,0.00,SCT,SCT,0.00,WeatherDisplay:10.37,2013-04-06 07:11:00,
2013-04-06 03:12:00,42.6,33.9,30.05,East,90,0.0,0.0,71,0.00,SCT,SCT,0.00,WeatherDisplay:10.37,2013-04-06 07:12:00,
2013-04-06 03:13:00,42.6,33.9,30.05,East,90,0.0,0.0,71,0.00,SCT,SCT,0.00,WeatherDisplay:10.37,2013-04-06 07:13:00,
2013-04-06 03:14:00,42.6,33.9,30.05,East,90,0.0,0.0,71,0.00,SCT,SCT,0.00,WeatherDisplay:10.37,2013-04-06 07:14:00,
2013-04-06 03:15:00,42.6,33.9,30.05,East,90,0.0,0.0,71,0.00,SCT,SCT,0.00,WeatherDisplay:10.37,2013-04-06 07:15:00,
2013-04-06 03:16:00,42.6,33.9,30.05,East,90,0.0,0.0,71,0.00,SCT,SCT,0.00,WeatherDisplay:10.37,2013-04-06 07:16:00,
2013-04-06 03:17:00,42.6,33.9,30.05,East,90,0.0,0.0,71,0.00,SCT,SCT,0.00,WeatherDisplay:10.37,2013-04-06 07:17:00,
2013-04-06 03:18:00,42.6,33.9,30.05,East,90,0.0,0.0,71,0.00,SCT,SCT,0.00,WeatherDisplay:10.37,2013-04-06 07:18:00,
2013-04-06 08:09:00,42.8,33.0,30.05,East,90,0.0,0.0,68,0.00,CLR,,0.00,WeatherDisplay:10.37,2013-04-06 12:09:00,
2013-04-06 08:10:00,42.6,33.9,30.05,East,90,0.0,0.0,71,0.00,CLR,,0.00,WeatherDisplay:10.37,2013-04-06 12:10:00,
2013-04-06 08:15:00,42.6,33.9,30.05,East,90,0.0,0.0,71,0.00,CLR,,0.00,WeatherDisplay:10.37,2013-04-06 12:15:00,
2013-04-06 08:20:00,42.8,33.0,30.05,East,90,0.0,0.0,68,0.00,SCT,,0.00,WeatherDisplay:10.37,2013-04-06 12:20:00,
2013-04-06 08:25:00,43.2,33.3,30.05,East,90,0.0,0.9,68,0.00,SCT,,0.00,WeatherDisplay:10.37,2013-04-06 12:25:00,
2013-04-06 08:30:00,43.7,33.8,30.05,East,90,1.2,0.0,68,0.00,SCT,,0.00,WeatherDisplay:10.37,2013-04-06 12:30:00,
2013-04-06 08:35:00,44.4,34.5,30.05,East,90,1.4,1.4,68,0.00,SCT,,0.00,WeatherDisplay:10.37,2013-04-06 12:35:00,
2013-04-06 08:40:00,45.0,35.0,30.05,East,90,2.0,2.0,68,0.00,SCT,,0.00,WeatherDisplay:10.37,2013-04-06 12:40:00,
2013-04-06 08:45:00,45.5,35.5,30.05,East,90,2.3,2.3,68,0.00,SCT,,0.00,WeatherDisplay:10.37,2013-04-06 12:45:00,
2013-04-06 08:50:00,46.2,36.2,30.05,East,90,2.0,2.0,68,0.00,SCT,,0.00,WeatherDisplay:10.37,2013-04-06 12:50:00,
2013-04-06 08:55:00,46.9,35.8,30.05,East,90,2.4,2.4,65,0.00,SCT,,0.00,WeatherDisplay:10.37,2013-04-06 12:55:00,
2013-04-06 09:00:00,47.5,36.3,30.05,East,90,2.3,2.3,65,0.00,SCT,,0.00,WeatherDisplay:10.37,2013-04-06 13:00:00,
2013-04-06 09:06:00,48.2,37.0,30.05,East,90,2.3,2.4,65,0.00,SCT,,0.00,WeatherDisplay:10.37,2013-04-06 13:06:00,
2013-04-06 09:12:00,48.7,34.2,30.05,East,90,3.5,3.5,57,0.00,SCT,,0.00,WeatherDisplay:10.37,2013-04-06 13:12:00,
2013-04-06 09:17:00,49.3,34.7,30.05,SE,135,2.6,2.6,57,0.00,SCT,,0.00,WeatherDisplay:10.37,2013-04-06 13:17:00,
2013-04-06 09:22:00,50.2,35.5,30.05,SE,135,2.6,2.6,57,0.00,SCT,,0.00,WeatherDisplay:10.37,2013-04-06 13:22:00,
2013-04-06 09:27:00,50.7,36.0,30.05,SE,135,2.6,2.6,57,0.00,SCT,,0.00,WeatherDisplay:10.37,2013-04-06 13:27:00,
2013-04-06 09:32:00,51.4,36.7,30.05,SE,135,2.3,3.1,57,0.00,SCT,,0.00,WeatherDisplay:10.37,2013-04-06 13:32:00,
2013-04-06 09:37:00,52.5,36.8,30.05,South,180,3.5,3.5,55,0.00,SCT,,0.00,WeatherDisplay:10.37,2013-04-06 13:37:00,
2013-04-06 09:43:00,53.6,37.8,30.05,SE,135,2.6,2.6,55,0.00,SCT,,0.00,WeatherDisplay:10.37,2013-04-06 13:43:00,
2013-04-06 09:48:00,54.5,38.7,30.02,SE,135,3.5,3.5,55,0.00,SCT,,0.00,WeatherDisplay:10.37,2013-04-06 13:48:00,
2013-04-06 09:53:00,55.4,38.1,30.02,SE,135,4.6,4.6,52,0.00,SCT,,0.00,WeatherDisplay:10.37,2013-04-06 13:53:00,
2013-04-06 09:58:00,55.9,38.6,30.02,SE,135,3.5,3.5,52,0.00,SCT,,0.00,WeatherDisplay:10.37,2013-04-06 13:58:00,
2013-04-06 10:03:00,56.8,39.4,30.02,South,180,6.0,6.0,52,0.00,SCT,,0.00,WeatherDisplay:10.37,2013-04-06 14:03:00,
2013-04-06 10:08:00,57.2,39.7,30.02,South,180,5.4,5.4,52,0.00,SCT,,0.00,WeatherDisplay:10.37,2013-04-06 14:08:00,
2013-04-06 10:13:00,58.1,40.6,30.02,SE,135,3.8,3.8,52,0.00,SCT,,0.00,WeatherDisplay:10.37,2013-04-06 14:13:00,
2013-04-06 10:18:00,58.6,41.1,30.02,South,180,5.8,5.8,52,0.00,SCT,,0.00,WeatherDisplay:10.37,2013-04-06 14:18:00,
2013-04-06 10:23:00,58.8,41.2,30.02,East,90,4.6,4.6,52,0.00,SCT,,0.00,WeatherDisplay:10.37,2013-04-06 14:23:00,
2013-04-06 10:28:00,59.5,41.9,30.02,South,180,5.9,5.9,52,0.00,SCT,,0.00,WeatherDisplay:10.37,2013-04-06 14:28:00,
2013-04-06 10:33:00,60.1,42.4,30.05,South,180,8.1,8.1,52,0.00,SCT,,0.00,WeatherDisplay:10.37,2013-04-06 14:33:00,
2013-04-06 10:38:00,60.6,42.9,30.05,South,180,8.1,8.1,52,0.00,SCT,,0.00,WeatherDisplay:10.37,2013-04-06 14:38:00,
2013-04-06 10:43:00,61.3,42.5,30.05,SE,135,3.5,3.5,50,0.00,SCT,,0.00,WeatherDisplay:10.37,2013-04-06 14:43:00,
2013-04-06 10:48:00,61.7,42.9,30.05,South,180,6.2,6.2,50,0.00,SCT,,0.00,WeatherDisplay:10.37,2013-04-06 14:48:00,
2013-04-06 10:53:00,62.1,43.2,30.05,South,180,8.1,8.1,50,0.00,SCT,,0.00,WeatherDisplay:10.37,2013-04-06 14:53:00,
2013-04-06 10:58:00,62.4,43.5,30.05,South,180,6.9,6.9,50,0.00,SCT,,0.00,WeatherDisplay:10.37,2013-04-06 14:58:00,
2013-04-06 11:04:00,63.1,44.2,30.02,South,180,6.9,6.9,50,0.00,SCT,,0.00,WeatherDisplay:10.37,2013-04-06 15:04:00,
2013-04-06 11:09:00,63.5,44.5,30.02,South,180,5.8,5.8,50,0.00,SCT,,0.00,WeatherDisplay:10.37,2013-04-06 15:09:00,
2013-04-06 11:14:00,64.8,44.1,30.02,SSE,158,4.6,4.6,47,0.00,SCT,,0.00,WeatherDisplay:10.37,2013-04-06 15:14:00,
2013-04-06 11:19:00,65.3,44.5,30.05,South,180,6.9,6.9,47,0.00,SCT,,0.00,WeatherDisplay:10.37,2013-04-06 15:19:00,
2013-04-06 11:24:00,65.7,44.9,30.05,SE,135,6.9,6.9,47,0.00,SCT,,0.00,WeatherDisplay:10.37,2013-04-06 15:24:00,
2013-04-06 11:29:00,65.7,44.9,30.05,SW,225,9.4,9.4,47,0.00,SCT,,0.00,WeatherDisplay:10.37,2013-04-06 15:29:00,
2013-04-06 11:34:00,66.0,45.2,30.02,South,180,5.8,5.8,47,0.00,SCT,,0.00,WeatherDisplay:10.37,2013-04-06 15:34:00,
2013-04-06 11:39:00,66.2,45.4,30.02,South,180,8.1,8.1,47,0.00,SCT,,0.00,WeatherDisplay:10.37,2013-04-06 15:39:00,
2013-04-06 11:44:00,66.4,45.5,30.02,South,180,9.2,9.2,47,0.00,SCT,,0.00,WeatherDisplay:10.37,2013-04-06 15:44:00,
2013-04-06 11:49:00,66.7,45.9,30.02,South,180,9.2,9.2,47,0.00,SCT,,0.00,WeatherDisplay:10.37,2013-04-06 15:49:00,
2013-04-06 11:55:00,67.5,46.5,30.02,South,180,8.1,8.1,47,0.00,SCT,,0.00,WeatherDisplay:10.37,2013-04-06 15:55:00,
2013-04-06 12:00:00,67.8,46.8,30.02,South,180,6.0,6.0,47,0.00,SCT,,0.00,WeatherDisplay:10.37,2013-04-06 16:00:00,
2013-04-06 12:05:00,68.0,47.0,30.02,SSW,202,8.1,8.1,47,0.00,SCT,,0.00,WeatherDisplay:10.37,2013-04-06 16:05:00,
2013-04-06 12:10:00,69.1,48.0,30.02,South,180,5.8,5.8,47,0.00,SCT,,0.00,WeatherDisplay:10.37,2013-04-06 16:10:00,
2013-04-06 12:15:00,69.3,48.2,30.02,SSW,202,9.2,9.2,47,0.00,SCT,,0.00,WeatherDisplay:10.37,2013-04-06 16:15:00,
2013-04-06 12:20:00,69.6,48.5,29.99,South,180,7.8,7.8,47,0.00,BKN,,0.00,WeatherDisplay:10.37,2013-04-06 16:20:00,
2013-04-06 12:25:00,69.8,46.9,29.99,South,180,5.9,5.9,44,0.00,BKN,,0.00,WeatherDisplay:10.37,2013-04-06 16:25:00,
2013-04-06 12:30:00,70.2,47.2,29.99,South,180,10.4,10.4,44,0.00,BKN,,0.00,WeatherDisplay:10.37,2013-04-06 16:30:00,
2013-04-06 12:35:00,70.2,47.2,30.02,South,180,8.1,8.7,44,0.00,BKN,,0.00,WeatherDisplay:10.37,2013-04-06 16:35:00,
2013-04-06 12:40:00,69.6,48.5,30.02,SSW,202,5.8,5.8,47,0.00,BKN,,0.00,WeatherDisplay:10.37,2013-04-06 16:40:00,
2013-04-06 12:45:00,70.7,47.7,30.02,SSE,158,8.5,8.5,44,0.00,BKN,,0.00,WeatherDisplay:10.37,2013-04-06 16:45:00,
2013-04-06 12:50:00,71.2,48.2,30.02,South,180,7.8,7.8,44,0.00,BKN,,0.00,WeatherDisplay:10.37,2013-04-06 16:50:00,
2013-04-06 12:55:00,72.0,48.9,30.02,South,180,5.8,5.8,44,0.00,BKN,,0.00,WeatherDisplay:10.37,2013-04-06 16:55:00,
2013-04-06 13:00:00,72.0,48.9,30.02,SSW,202,8.1,8.1,44,0.00,BKN,,0.00,WeatherDisplay:10.37,2013-04-06 17:00:00,
2013-04-06 13:05:00,72.1,49.0,30.02,SE,135,4.6,4.6,44,0.00,BKN,,0.00,WeatherDisplay:10.37,2013-04-06 17:05:00,
2013-04-06 13:11:00,72.9,49.7,30.02,SW,225,6.9,6.9,44,0.00,BKN,,0.00,WeatherDisplay:10.37,2013-04-06 17:11:00,
2013-04-06 13:16:00,72.7,49.5,30.02,SW,225,6.9,6.9,44,0.00,BKN,,0.00,WeatherDisplay:10.37,2013-04-06 17:16:00,
2013-04-06 13:21:00,72.1,49.0,29.99,SW,225,8.1,8.1,44,0.00,BKN,,0.00,WeatherDisplay:10.37,2013-04-06 17:21:00,
2013-04-06 13:26:00,71.1,48.0,29.99,SW,225,10.4,10.4,44,0.00,BKN,,0.00,WeatherDisplay:10.37,2013-04-06 17:26:00,
2013-04-06 13:31:00,71.4,48.4,29.99,South,180,12.7,12.7,44,0.00,BKN,,0.00,WeatherDisplay:10.37,2013-04-06 17:31:00,
2013-04-06 13:36:00,71.8,48.7,29.99,South,180,10.4,10.4,44,0.00,BKN,,0.00,WeatherDisplay:10.37,2013-04-06 17:36:00,
2013-04-06 13:41:00,70.7,47.7,29.99,SW,225,5.9,5.9,44,0.00,BKN,,0.00,WeatherDisplay:10.37,2013-04-06 17:41:00,
2013-04-06 13:46:00,72.0,48.9,29.99,SSW,202,10.4,10.4,44,0.00,BKN,,0.00,WeatherDisplay:10.37,2013-04-06 17:46:00,
2013-04-06 13:50:00,72.9,49.7,29.96,South,180,8.1,8.1,44,0.00,BKN,,0.00,WeatherDisplay:10.37,2013-04-06 17:50:00,
2013-04-06 13:55:00,73.8,48.6,29.96,South,180,5.8,5.8,41,0.00,BKN,,0.00,WeatherDisplay:10.37,2013-04-06 17:55:00,
2013-04-06 14:00:00,73.9,48.7,29.96,South,180,8.1,8.1,41,0.00,BKN,,0.00,WeatherDisplay:10.37,2013-04-06 18:00:00,
2013-04-06 14:05:00,73.9,48.7,29.93,South,180,8.1,8.1,41,0.00,BKN,,0.00,WeatherDisplay:10.37,2013-04-06 18:05:00,
2013-04-06 14:10:00,73.8,48.6,29.93,South,180,8.1,8.1,41,0.00,BKN,,0.00,WeatherDisplay:10.37,2013-04-06 18:10:00,
2013-04-06 14:15:00,73.8,48.6,29.93,SW,225,10.7,10.7,41,0.00,BKN,,0.00,WeatherDisplay:10.37,2013-04-06 18:15:00,
2013-04-06 14:20:00,73.4,48.3,29.93,SSW,202,11.5,11.5,41,0.00,BKN,,0.00,WeatherDisplay:10.37,2013-04-06 18:20:00,
2013-04-06 14:25:00,72.7,49.5,29.93,SW,225,9.2,9.2,44,0.00,BKN,,0.00,WeatherDisplay:10.37,2013-04-06 18:25:00,
2013-04-06 14:30:00,73.6,48.4,29.93,SW,225,10.0,10.0,41,0.00,BKN,,0.00,WeatherDisplay:10.37,2013-04-06 18:30:00,
2013-04-06 14:35:00,73.8,48.6,29.96,South,180,6.9,6.9,41,0.00,BKN,,0.00,WeatherDisplay:10.37,2013-04-06 18:35:00,
2013-04-06 14:40:00,75.0,49.7,29.96,South,180,6.0,6.0,41,0.00,BKN,,0.00,WeatherDisplay:10.37,2013-04-06 18:40:00,
2013-04-06 14:45:00,75.6,50.2,29.96,West,270,8.1,8.1,41,0.00,BKN,,0.00,WeatherDisplay:10.37,2013-04-06 18:45:00,
2013-04-06 14:50:00,74.5,49.2,29.96,South,180,12.7,12.7,41,0.00,BKN,,0.00,WeatherDisplay:10.37,2013-04-06 18:50:00,
2013-04-06 14:55:00,74.7,49.4,29.96,SW,225,8.1,8.1,41,0.00,BKN,,0.00,WeatherDisplay:10.37,2013-04-06 18:55:00,
2013-04-06 15:00:00,74.7,49.4,29.96,SW,225,8.1,8.1,41,0.00,BKN,,0.00,WeatherDisplay:10.37,2013-04-06 19:00:00,
2013-04-06 15:05:00,74.8,49.6,29.96,SW,225,9.2,9.2,41,0.00,SCT,,0.00,WeatherDisplay:10.37,2013-04-06 19:05:00,
2013-04-06 15:10:00,74.7,49.4,29.96,SW,225,12.7,12.7,41,0.00,SCT,,0.00,WeatherDisplay:10.37,2013-04-06 19:10:00,
2013-04-06 15:15:00,74.8,49.6,29.96,South,180,10.4,10.4,41,0.00,SCT,,0.00,WeatherDisplay:10.37,2013-04-06 19:15:00,
2013-04-06 15:20:00,74.5,49.2,29.93,South,180,15.0,15.0,41,0.00,SCT,,0.00,WeatherDisplay:10.37,2013-04-06 19:20:00,
2013-04-06 15:25:00,75.6,50.2,29.93,SW,225,4.7,4.7,41,0.00,SCT,,0.00,WeatherDisplay:10.37,2013-04-06 19:25:00,
2013-04-06 15:30:00,73.8,48.6,29.93,SW,225,15.0,15.0,41,0.00,SCT,,0.00,WeatherDisplay:10.37,2013-04-06 19:30:00,
2013-04-06 15:35:00,74.3,49.1,29.93,SW,225,11.5,11.5,41,0.00,SCT,,0.00,WeatherDisplay:10.37,2013-04-06 19:35:00,
2013-04-06 15:40:00,74.3,49.1,29.93,South,180,8.7,8.7,41,0.00,SCT,,0.00,WeatherDisplay:10.37,2013-04-06 19:40:00,
2013-04-06 15:45:00,74.7,49.4,29.93,SW,225,12.7,12.7,41,0.00,SCT,,0.00,WeatherDisplay:10.37,2013-04-06 19:45:00,
2013-04-06 15:51:00,74.7,49.4,29.91,South,180,10.4,10.4,41,0.00,SCT,,0.00,WeatherDisplay:10.37,2013-04-06 19:51:00,
2013-04-06 15:56:00,75.6,50.2,29.91,South,180,9.2,9.2,41,0.00,SCT,,0.00,WeatherDisplay:10.37,2013-04-06 19:56:00,
2013-04-06 16:02:00,75.4,50.0,29.91,SSW,202,6.0,6.4,41,0.00,CLR,,0.00,WeatherDisplay:10.37,2013-04-06 20:02:00,
2013-04-06 16:07:00,74.7,49.4,29.91,South,180,10.4,10.4,41,0.00,CLR,,0.00,WeatherDisplay:10.37,2013-04-06 20:07:00,
2013-04-06 16:12:00,74.3,49.1,29.91,South,180,8.1,8.1,41,0.00,CLR,,0.00,WeatherDisplay:10.37,2013-04-06 20:12:00,
2013-04-06 16:17:00,74.8,49.6,29.91,SW,225,10.4,10.4,41,0.00,CLR,,0.00,WeatherDisplay:10.37,2013-04-06 20:17:00,
2013-04-06 16:22:00,74.3,49.1,29.91,SW,225,8.1,8.1,41,0.00,CLR,,0.00,WeatherDisplay:10.37,2013-04-06 20:22:00,
2013-04-06 16:27:00,74.5,49.2,29.91,SW,225,10.9,10.9,41,0.00,CLR,,0.00,WeatherDisplay:10.37,2013-04-06 20:27:00,
2013-04-06 16:32:00,73.9,48.7,29.91,South,180,10.4,10.4,41,0.00,CLR,,0.00,WeatherDisplay:10.37,2013-04-06 20:32:00,
2013-04-06 16:37:00,74.5,49.2,29.93,SW,225,8.1,8.1,41,0.00,CLR,,0.00,WeatherDisplay:10.37,2013-04-06 20:37:00,
2013-04-06 16:42:00,73.2,50.0,29.93,SW,225,15.0,15.0,44,0.00,CLR,,0.00,WeatherDisplay:10.37,2013-04-06 20:42:00,
2013-04-06 16:47:00,73.9,48.7,29.93,SW,225,9.2,9.7,41,0.00,CLR,,0.00,WeatherDisplay:10.37,2013-04-06 20:47:00,
2013-04-06 16:52:00,73.2,50.0,29.91,WSW,248,14.3,14.3,44,0.00,CLR,,0.00,WeatherDisplay:10.37,2013-04-06 20:52:00,
2013-04-06 16:57:00,73.4,48.3,29.91,SW,225,12.7,12.7,41,0.00,CLR,,0.00,WeatherDisplay:10.37,2013-04-06 20:57:00,
2013-04-06 17:02:00,73.4,48.3,29.91,SW,225,9.2,9.2,41,0.00,CLR,,0.00,WeatherDisplay:10.37,2013-04-06 21:02:00,
2013-04-06 17:07:00,73.4,48.3,29.91,South,180,11.5,11.5,41,0.00,CLR,,0.00,WeatherDisplay:10.37,2013-04-06 21:07:00,
2013-04-06 17:12:00,73.8,48.6,29.91,South,180,9.2,9.2,41,0.00,CLR,,0.00,WeatherDisplay:10.37,2013-04-06 21:12:00,
2013-04-06 17:17:00,74.1,48.9,29.91,South,180,9.2,9.2,41,0.00,CLR,,0.00,WeatherDisplay:10.37,2013-04-06 21:17:00,
2013-04-06 17:22:00,74.5,49.2,29.91,South,180,9.2,9.2,41,0.00,CLR,,0.00,WeatherDisplay:10.37,2013-04-06 21:22:00,
2013-04-06 17:27:00,74.3,49.1,29.91,South,180,9.2,9.2,41,0.00,CLR,,0.00,WeatherDisplay:10.37,2013-04-06 21:27:00,
2013-04-06 17:33:00,73.8,48.6,29.88,South,180,8.1,8.1,41,0.00,CLR,,0.00,WeatherDisplay:10.37,2013-04-06 21:33:00,
2013-04-06 17:38:00,72.5,49.3,29.88,South,180,9.2,9.2,44,0.00,CLR,,0.00,WeatherDisplay:10.37,2013-04-06 21:38:00,
2013-04-06 17:43:00,71.6,48.5,29.88,South,180,10.4,10.4,44,0.00,CLR,,0.00,WeatherDisplay:10.37,2013-04-06 21:43:00,
2013-04-06 17:48:00,71.2,48.2,29.88,South,180,11.4,11.4,44,0.00,CLR,,0.00,WeatherDisplay:10.37,2013-04-06 21:48:00,
2013-04-06 17:53:00,71.1,48.0,29.88,South,180,9.8,9.8,44,0.00,CLR,,0.00,WeatherDisplay:10.37,2013-04-06 21:53:00,
2013-04-06 17:58:00,70.9,47.9,29.88,South,180,10.4,10.4,44,0.00,CLR,,0.00,WeatherDisplay:10.37,2013-04-06 21:58:00,
2013-04-06 18:03:00,71.2,48.2,29.88,South,180,8.1,8.1,44,0.00,FEW,,0.00,WeatherDisplay:10.37,2013-04-06 22:03:00,
2013-04-06 18:08:00,71.4,48.4,29.88,SW,225,8.1,8.1,44,0.00,FEW,,0.00,WeatherDisplay:10.37,2013-04-06 22:08:00,
2013-04-06 18:13:00,71.2,48.2,29.88,SSW,202,10.4,10.4,44,0.00,FEW,,0.00,WeatherDisplay:10.37,2013-04-06 22:13:00,
2013-04-06 18:18:00,70.7,47.7,29.88,SSW,202,9.2,9.2,44,0.00,FEW,,0.00,WeatherDisplay:10.37,2013-04-06 22:18:00,
2013-04-06 18:23:00,70.3,47.4,29.88,South,180,10.0,10.0,44,0.00,FEW,,0.00,WeatherDisplay:10.37,2013-04-06 22:23:00,
2013-04-06 18:28:00,70.2,47.2,29.88,South,180,9.8,9.8,44,0.00,FEW,,0.00,WeatherDisplay:10.37,2013-04-06 22:28:00,
2013-04-06 18:33:00,70.7,47.7,29.88,South,180,8.7,8.7,44,0.00,FEW,,0.00,WeatherDisplay:10.37,2013-04-06 22:33:00,
2013-04-06 18:38:00,70.9,47.9,29.88,South,180,12.7,12.7,44,0.00,FEW,,0.00,WeatherDisplay:10.37,2013-04-06 22:38:00,
2013-04-06 18:43:00,71.1,48.0,29.88,SSW,202,9.2,9.2,44,0.00,FEW,,0.00,WeatherDisplay:10.37,2013-04-06 22:43:00,
2013-04-06 18:48:00,71.1,48.0,29.88,SW,225,10.4,10.4,44,0.00,FEW,,0.00,WeatherDisplay:10.37,2013-04-06 22:48:00,
2013-04-06 18:53:00,70.9,47.9,29.88,South,180,10.4,10.4,44,0.00,FEW,,0.00,WeatherDisplay:10.37,2013-04-06 22:53:00,
2013-04-06 18:59:00,70.5,47.5,29.88,South,180,12.3,12.3,44,0.00,FEW,,0.00,WeatherDisplay:10.37,2013-04-06 22:59:00,
2013-04-06 19:04:00,69.8,46.9,29.88,South,180,11.5,11.5,44,0.00,FEW,,0.00,WeatherDisplay:10.37,2013-04-06 23:04:00,
2013-04-06 19:09:00,69.1,48.0,29.88,South,180,9.2,9.2,47,0.00,FEW,,0.00,WeatherDisplay:10.37,2013-04-06 23:09:00,
2013-04-06 19:14:00,68.7,47.7,29.88,South,180,11.5,11.5,47,0.00,FEW,,0.00,WeatherDisplay:10.37,2013-04-06 23:14:00,
2013-04-06 19:18:00,60.4,15.4,29.88,SSW,193,6.0,8.0,17,0.00,CLR,CLR,0.00,WeatherDisplay:10.37,2013-04-06 23:18:00,
2013-04-06 19:19:00,68.2,47.2,29.88,South,180,9.2,9.2,47,0.00,FEW,,0.00,WeatherDisplay:10.37,2013-04-06 23:19:00,
2013-04-06 19:24:00,68.0,47.0,29.88,South,180,8.1,8.1,47,0.00,FEW,,0.00,WeatherDisplay:10.37,2013-04-06 23:24:00,
2013-04-06 19:29:00,68.0,47.0,29.88,SSW,202,8.1,8.1,47,0.00,FEW,,0.00,WeatherDisplay:10.37,2013-04-06 23:29:00,
2013-04-06 19:33:00,61.0,14.4,29.88,South,184,7.0,13.0,16,0.00,CLR,CLR,0.00,WeatherDisplay:10.37,2013-04-06 23:33:00,
2013-04-06 19:34:00,67.8,46.8,29.88,SSW,202,10.4,10.4,47,0.00,FEW,,0.00,WeatherDisplay:10.37,2013-04-06 23:34:00,
2013-04-06 19:39:00,67.6,46.7,29.88,SSW,202,6.9,6.9,47,0.00,FEW,,0.00,WeatherDisplay:10.37,2013-04-06 23:39:00,
2013-04-06 19:44:00,67.5,46.5,29.88,South,180,5.9,5.9,47,0.00,FEW,,0.00,WeatherDisplay:10.37,2013-04-06 23:44:00,
2013-04-06 19:48:00,61.3,14.7,29.88,South,187,8.0,11.0,16,0.00,CLR,CLR,0.00,WeatherDisplay:10.37,2013-04-06 23:48:00,
2013-04-06 19:49:00,67.3,46.4,29.88,South,180,5.8,5.8,47,0.00,FEW,,0.00,WeatherDisplay:10.37,2013-04-06 23:49:00,
2013-04-06 19:54:00,66.9,46.0,29.88,South,180,6.9,6.9,47,0.00,FEW,,0.00,WeatherDisplay:10.37,2013-04-06 23:54:00,
2013-04-06 19:59:00,66.7,45.9,29.88,South,180,10.4,10.4,47,0.00,FEW,,0.00,WeatherDisplay:10.37,2013-04-06 23:59:00,
2013-04-06 20:03:00,61.5,14.8,29.85,South,185,6.0,13.0,16,0.00,CLR,CLR,0.00,WeatherDisplay:10.37,2013-04-07 00:03:00,
2013-04-06 20:05:00,66.0,45.2,29.88,South,180,5.8,5.8,47,0.00,CLR,,0.00,WeatherDisplay:10.37,2013-04-07 00:05:00,
2013-04-06 20:10:00,65.7,44.9,29.88,South,180,4.9,4.9,47,0.00,CLR,,0.00,WeatherDisplay:10.37,2013-04-07 00:10:00,
2013-04-06 20:15:00,65.3,44.5,29.88,South,180,5.8,5.8,47,0.00,CLR,,0.00,WeatherDisplay:10.37,2013-04-07 00:15:00,
2013-04-06 20:18:00,61.5,14.8,29.88,SSW,213,9.0,12.0,16,0.00,CLR,CLR,0.00,WeatherDisplay:10.37,2013-04-07 00:18:00,
2013-04-06 20:20:00,64.8,44.1,29.88,SW,225,5.8,5.8,47,0.00,CLR,,0.00,WeatherDisplay:10.37,2013-04-07 00:20:00,
2013-04-06 20:25:00,64.0,45.0,29.88,SW,225,5.8,5.8,50,0.00,CLR,,0.00,WeatherDisplay:10.37,2013-04-07 00:25:00,
2013-04-06 20:30:00,63.7,44.7,29.88,SW,225,5.8,5.8,50,0.00,CLR,,0.00,WeatherDisplay:10.37,2013-04-07 00:30:00,
2013-04-06 20:33:00,61.3,14.7,29.88,SSW,203,7.0,15.0,16,0.00,CLR,CLR,0.00,WeatherDisplay:10.37,2013-04-07 00:33:00,
2013-04-06 20:35:00,63.1,44.2,29.88,South,180,6.9,6.9,50,0.00,CLR,,0.00,WeatherDisplay:10.37,2013-04-07 00:35:00,
2013-04-06 20:40:00,63.0,44.0,29.88,SSW,202,5.8,5.8,50,0.00,CLR,,0.00,WeatherDisplay:10.37,2013-04-07 00:40:00,
2013-04-06 20:45:00,62.6,43.7,29.88,South,180,5.8,5.8,50,0.00,CLR,,0.00,WeatherDisplay:10.37,2013-04-07 00:45:00,
2013-04-06 20:48:00,61.3,14.7,29.88,SSW,204,7.0,10.0,16,0.00,CLR,CLR,0.00,WeatherDisplay:10.37,2013-04-07 00:48:00,
2013-04-06 20:50:00,62.4,43.5,29.88,South,180,4.6,4.6,50,0.00,CLR,,0.00,WeatherDisplay:10.37,2013-04-07 00:50:00,
2013-04-06 20:55:00,62.1,43.2,29.88,South,180,3.6,3.6,50,0.00,CLR,,0.00,WeatherDisplay:10.37,2013-04-07 00:55:00,
2013-04-06 21:00:00,61.9,43.0,29.88,SSW,202,3.5,3.5,50,0.00,CLR,,0.00,WeatherDisplay:10.37,2013-04-07 01:00:00,
2013-04-06 21:03:00,61.0,14.4,29.88,SSW,213,7.0,8.0,16,0.00,CLR,CLR,0.00,WeatherDisplay:10.37,2013-04-07 01:03:00,
2013-04-06 21:06:00,61.7,42.9,29.88,South,180,4.6,4.6,50,0.00,BKN,,0.00,WeatherDisplay:10.37,2013-04-07 01:06:00,
2013-04-06 21:11:00,61.7,42.9,29.88,South,180,5.8,5.8,50,0.00,BKN,,0.00,WeatherDisplay:10.37,2013-04-07 01:11:00,
2013-04-06 21:16:00,61.7,42.9,29.88,South,180,4.6,4.6,50,0.00,BKN,,0.00,WeatherDisplay:10.37,2013-04-07 01:16:00,
2013-04-06 21:18:00,61.3,14.7,29.88,SSW,211,6.0,9.0,16,0.00,CLR,CLR,0.00,WeatherDisplay:10.37,2013-04-07 01:18:00,
2013-04-06 21:21:00,61.5,42.7,29.88,South,180,5.8,5.8,50,0.00,BKN,,0.00,WeatherDisplay:10.37,2013-04-07 01:21:00,
2013-04-06 21:26:00,61.3,42.5,29.88,South,180,5.8,5.8,50,0.00,BKN,,0.00,WeatherDisplay:10.37,2013-04-07 01:26:00,
2013-04-06 21:31:00,61.0,42.2,29.88,South,180,5.8,5.8,50,0.00,BKN,,0.00,WeatherDisplay:10.37,2013-04-07 01:31:00,
2013-04-06 21:33:00,61.2,14.5,29.88,SW,219,7.0,13.0,16,0.00,CLR,CLR,0.00,WeatherDisplay:10.37,2013-04-07 01:33:00,
2013-04-06 21:36:00,60.6,42.9,29.88,South,180,3.8,3.8,52,0.00,BKN,,0.00,WeatherDisplay:10.37,2013-04-07 01:36:00,
2013-04-06 21:41:00,60.3,42.6,29.88,South,180,4.7,4.7,52,0.00,BKN,,0.00,WeatherDisplay:10.37,2013-04-07 01:41:00,
2013-04-06 21:47:00,60.1,42.4,29.88,South,180,5.8,5.8,52,0.00,BKN,,0.00,WeatherDisplay:10.37,2013-04-07 01:47:00,
2013-04-06 21:48:00,60.6,15.5,29.88,SSW,205,8.0,8.0,17,0.00,CLR,CLR,0.00,WeatherDisplay:10.37,2013-04-07 01:48:00,
2013-04-06 21:52:00,59.9,42.2,29.88,South,180,5.6,5.6,52,0.00,BKN,,0.00,WeatherDisplay:10.37,2013-04-07 01:52:00,
2013-04-06 21:57:00,60.1,42.4,29.88,South,180,5.9,5.9,52,0.00,BKN,,0.00,WeatherDisplay:10.37,2013-04-07 01:57:00,
2013-04-06 22:02:00,60.1,42.4,29.88,SSW,202,6.9,6.9,52,0.00,BKN,,0.00,WeatherDisplay:10.37,2013-04-07 02:02:00,
2013-04-06 22:03:00,60.1,15.1,29.88,SSW,213,7.0,10.0,17,0.00,CLR,CLR,0.00,WeatherDisplay:10.37,2013-04-07 02:03:00,
2013-04-06 22:07:00,60.1,42.4,29.88,South,180,5.8,5.8,52,0.00,BKN,,0.00,WeatherDisplay:10.37,2013-04-07 02:07:00,
2013-04-06 22:12:00,60.3,42.6,29.88,SSW,202,5.8,5.8,52,0.00,BKN,,0.00,WeatherDisplay:10.37,2013-04-07 02:12:00,
2013-04-06 22:17:00,60.4,42.7,29.88,South,180,8.1,8.1,52,0.00,BKN,,0.00,WeatherDisplay:10.37,2013-04-07 02:17:00,
2013-04-06 22:18:00,59.7,14.8,29.85,SSW,207,7.0,14.0,17,0.00,CLR,CLR,0.00,WeatherDisplay:10.37,2013-04-07 02:18:00,
2013-04-06 22:22:00,60.4,42.7,29.88,SW,225,4.6,4.6,52,0.00,BKN,,0.00,WeatherDisplay:10.37,2013-04-07 02:22:00,
2013-04-06 22:27:00,60.4,42.7,29.88,South,180,8.1,8.1,52,0.00,BKN,,0.00,WeatherDisplay:10.37,2013-04-07 02:27:00,
2013-04-06 22:32:00,60.3,42.6,29.88,South,180,6.2,6.2,52,0.00,BKN,,0.00,WeatherDisplay:10.37,2013-04-07 02:32:00,
2013-04-06 22:33:00,58.8,14.0,29.85,SSW,210,6.0,9.0,17,0.00,CLR,CLR,0.00,WeatherDisplay:10.37,2013-04-07 02:33:00,
2013-04-06 22:37:00,60.3,42.6,29.91,SSW,202,5.8,5.8,52,0.00,BKN,,0.00,WeatherDisplay:10.37,2013-04-07 02:37:00,
2013-04-06 22:42:00,59.9,42.2,29.91,SW,225,4.6,4.6,52,0.00,BKN,,0.00,WeatherDisplay:10.37,2013-04-07 02:42:00,
2013-04-06 22:47:00,59.9,42.2,29.91,SSW,202,5.8,5.8,52,0.00,BKN,,0.00,WeatherDisplay:10.37,2013-04-07 02:47:00,
2013-04-06 22:48:00,58.1,13.4,29.88,SSW,199,3.0,6.0,17,0.00,CLR,CLR,0.00,WeatherDisplay:10.37,2013-04-07 02:48:00,
2013-04-06 22:52:00,59.9,42.2,29.88,SSW,202,6.0,6.0,52,0.00,BKN,,0.00,WeatherDisplay:10.37,2013-04-07 02:52:00,
2013-04-06 22:57:00,60.1,42.4,29.88,South,180,9.7,9.7,52,0.00,BKN,,0.00,WeatherDisplay:10.37,2013-04-07 02:57:00,
2013-04-06 23:02:00,60.1,42.4,29.88,SSW,202,4.7,4.7,52,0.00,OVC,,0.00,WeatherDisplay:10.37,2013-04-07 03:02:00,
2013-04-06 23:03:00,57.7,13.2,29.85,SSW,192,6.0,10.0,17,0.00,CLR,CLR,0.00,WeatherDisplay:10.37,2013-04-07 03:03:00,
2013-04-06 23:07:00,60.1,42.4,29.88,South,180,5.8,5.8,52,0.00,OVC,,0.00,WeatherDisplay:10.37,2013-04-07 03:07:00,
2013-04-06 23:12:00,60.1,42.4,29.88,South,180,5.8,5.8,52,0.00,OVC,,0.00,WeatherDisplay:10.37,2013-04-07 03:12:00,
2013-04-06 23:17:00,60.3,42.6,29.88,South,180,6.9,6.9,52,0.00,OVC,,0.00,WeatherDisplay:10.37,2013-04-07 03:17:00,
2013-04-06 23:18:00,57.4,12.9,29.85,SSW,204,3.0,6.0,17,0.00,CLR,CLR,0.00,WeatherDisplay:10.37,2013-04-07 03:18:00,
2013-04-06 23:22:00,60.3,42.6,29.91,South,180,6.9,6.9,52,0.00,OVC,,0.00,WeatherDisplay:10.37,2013-04-07 03:22:00,
2013-04-06 23:27:00,60.4,42.7,29.91,SSW,202,6.9,6.9,52,0.00,OVC,,0.00,WeatherDisplay:10.37,2013-04-07 03:27:00,
2013-04-06 23:32:00,60.3,42.6,29.91,South,180,6.9,6.9,52,0.00,OVC,,0.00,WeatherDisplay:10.37,2013-04-07 03:32:00,
2013-04-06 23:33:00,57.6,13.0,29.85,SSW,207,6.0,8.0,17,0.00,CLR,CLR,0.00,WeatherDisplay:10.37,2013-04-07 03:33:00,
2013-04-06 23:37:00,60.3,42.6,29.91,SSW,202,3.5,3.5,52,0.00,OVC,,0.00,WeatherDisplay:10.37,2013-04-07 03:37:00,
2013-04-06 23:42:00,60.3,42.6,29.91,South,180,5.8,5.8,52,0.00,OVC,,0.00,WeatherDisplay:10.37,2013-04-07 03:42:00,
2013-04-06 23:47:00,60.3,42.6,29.91,South,180,5.9,5.9,52,0.00,OVC,,0.00,WeatherDisplay:10.37,2013-04-07 03:47:00,
2013-04-06 23:48:00,57.6,13.0,29.85,South,191,5.0,7.0,17,0.00,CLR,CLR,0.00,WeatherDisplay:10.37,2013-04-07 03:48:00,
2013-04-06 23:52:00,60.4,42.7,29.91,South,180,8.1,8.1,52,0.00,OVC,,0.00,WeatherDisplay:10.37,2013-04-07 03:52:00,
2013-04-06 23:57:00,60.4,42.7,29.91,South,180,8.7,8.7,52,0.00,OVC,,0.00,WeatherDisplay:10.37,2013-04-07 03:57:00,